THORAD AGENA D DEB, 6766

Orbit data source: Space-Track

THORAD AGENA D DEB, 6766 is space debris in SSO originally from a launch on Wed, 08 Apr 1970 UTC launched from the Air Force Western Test Range (AFWTR). Debris objects in space refer to the collection of defunct objects orbiting the Earth. Examples of debris include non-operational satellites, rocket bodies, and fragments generated from explosions, collisions, or faulty payload assembly.

Loading next visibility...
Identifier
6766, 1970-025NH
Orbit
SSO
Country
Flag of USUS
Related business
Manufacturer
Unknown
Mission
Spacecraft
Bus & Motor
Unknown
Mass
Unknown
Launch date (UTC)
1970-04-08 (56 years ago)
Launch vehicle
Unknown
Launch site
Air Force Western Test Range (AFWTR)
Object type
Payload
Rocket body
Debris
Shape & HBR
Unknown shape, 0.1 m
Radar Cross Section
Small (<0.1 m²)

Expand to show TLE details & history
Last TLE update: 13 hours ago

TLE from 13 hours ago
0 THORAD AGENA D DEB
1  6766U 70025NH  26132.58752257  .00000912  00000-0  54133-3 0  9995
2  6766 100.1628 174.3925 0076826 185.4213 174.6129 14.09162000830485
Epoch: 2026-05-12T14:06Z
TLE epoch observation values (Epoch: 2026-05-12T14:06:01.950Z)
Latitude
0.00005°
Longitude
92.52461°
Altitude
920.484 km
Speed
7.363 km/s
True Right ascension
11h 37m 34s
True Declination
0° 00' 00"
Sunlit
Object was in full shadow at epoch
Visualization orbit readout
Latitude
Unknown
Longitude
Unknown
Altitude
Unknown
Speed
Unknown
Apparent Right ascension
Unknown
Apparent Declination
Unknown
Sunlit
N/A
Visualization observer readout
Local Sidereal Time
11:03:19
Azimuth
Unknown
Elevation
Unknown
Doppler factor
Unknown
Orbital elements
Apogee altitude
915.092 km
Perigee altitude
803.885 km
Semi-major axis
7,237.625 km
Eccentricity
0.00768
Inclination
100.1628°
RAAN
174.3925°
Arg. of periapsis
185.4213°
True anomaly
174.69477°
Mean anomaly
174.6129°
Eccentric anomaly
174.65391°
Mean motion
3.52492 °/min
Orbital period
102.13 mins
BSTAR
0.00054133

Documentation

Showing up to 5 results
|